| time (UTC) | temp C | wind direction | speed KPH | gust KPH | rain 1hr cm | rain 24hr cm | rain mn cm | humidity % | barometer mb |
| 20260510051923 | 23 | 145 | 8.0 | 16.1 | 0.00 | 0.00 | 0.00 | 68 | 1024.3 |
| 20260510051211 | 23 | 118 | 8.0 | 19.3 | 0.00 | 0.00 | 0.00 | 68 | 1024.4 |
| 20260510050703 | 23 | 118 | 8.0 | 19.3 | 0.00 | 0.00 | 0.00 | 67 | 1024.4 |
| 20260510050204 | 23 | 110 | 8.0 | 16.1 | 0.00 | 0.00 | 0.00 | 66 | 1024.5 |
| 20260510045703 | 23 | 120 | 6.4 | 16.1 | 0.00 | 0.00 | 0.00 | 67 | 1024.5 |
| 20260510045210 | 23 | 124 | 6.4 | 14.5 | 0.00 | 0.00 | 0.00 | 67 | 1024.6 |
| 20260510044654 | 23 | 122 | 8.0 | 14.5 | 0.00 | 0.00 | 0.00 | 66 | 1024.6 |
| 20260510044155 | 23 | 129 | 8.0 | 17.7 | 0.00 | 0.00 | 0.00 | 65 | 1024.5 |
| 20260510043636 | 23 | 124 | 6.4 | 17.7 | 0.00 | 0.00 | 0.00 | 65 | 1024.5 |
| 20260510043119 | 23 | 123 | 8.0 | 16.1 | 0.00 | 0.00 | 0.00 | 64 | 1024.4 |
| 20260510042558 | 24 | 185 | 8.0 | 19.3 | 0.00 | 0.00 | 0.00 | 64 | 1024.4 |
| 20260510042055 | 24 | 120 | 8.0 | 19.3 | 0.00 | 0.00 | 0.00 | 63 | 1024.4 |
| 20260510041815 | 24 | 124 | 8.0 | 19.3 | 0.00 | 0.00 | 0.00 | 62 | 1024.4 |
| 20260510041100 | 24 | 146 | 8.0 | 19.3 | 0.00 | 0.00 | 0.00 | 61 | 1024.4 |
| 20260510040537 | 25 | 137 | 6.4 | 17.7 | 0.00 | 0.00 | 0.00 | 61 | 1024.4 |
| 20260510040038 | 25 | 112 | 6.4 | 16.1 | 0.00 | 0.00 | 0.00 | 60 | 1024.4 |
| 20260510035533 | 25 | 123 | 6.4 | 16.1 | 0.00 | 0.00 | 0.00 | 59 | 1024.3 |
| 20260510035024 | 25 | 133 | 9.7 | 19.3 | 0.00 | 0.00 | 0.00 | 58 | 1024.3 |
| 20260510034531 | 25 | 134 | 8.0 | 19.3 | 0.00 | 0.00 | 0.00 | 57 | 1024.3 |
| 20260510034007 | 25 | 107 | 8.0 | 16.1 | 0.00 | 0.00 | 0.00 | 58 | 1024.4 |
| 20260510033946 | 25 | 191 | 6.4 | 16.1 | 0.00 | 0.00 | 0.00 | 59 | 1024.3 |
| 20260510032958 | 25 | 101 | 6.4 | 17.7 | 0.00 | 0.00 | 0.00 | 59 | 1024.3 |
| 20260510032731 | 25 | 226 | 6.4 | 16.1 | 0.00 | 0.00 | 0.00 | 59 | 1024.2 |
| 20260510031939 | 25 | 135 | 6.4 | 19.3 | 0.00 | 0.00 | 0.00 | 59 | 1024.4 |
| 20260510031448 | 25 | 120 | 8.0 | 17.7 | 0.00 | 0.00 | 0.00 | 61 | 1024.3 |
| 20260510030945 | 25 | 212 | 8.0 | 17.7 | 0.00 | 0.00 | 0.00 | 60 | 1024.3 |
| 20260510030436 | 25 | 122 | 8.0 | 20.9 | 0.00 | 0.00 | 0.00 | 60 | 1024.3 |
| 20260510030148 | 25 | 191 | 8.0 | 20.9 | 0.00 | 0.00 | 0.00 | 61 | 1024.4 |
| 20260510025434 | 25 | 133 | 9.7 | 20.9 | 0.00 | 0.00 | 0.00 | 60 | 1024.4 |
| 20260510024912 | 25 | 126 | 9.7 | 20.9 | 0.00 | 0.00 | 0.00 | 60 | 1024.4 |
| 20260510024352 | 25 | 118 | 8.0 | 20.9 | 0.00 | 0.00 | 0.00 | 59 | 1024.5 |
| 20260510023847 | 25 | 193 | 8.0 | 19.3 | 0.00 | 0.00 | 0.00 | 60 | 1024.5 |
| 20260510023326 | 25 | 75 | 6.4 | 19.3 | 0.00 | 0.00 | 0.00 | 60 | 1024.5 |
| 20260510022850 | 25 | 124 | 6.4 | 19.3 | 0.00 | 0.00 | 0.00 | 60 | 1024.6 |
| 20260510022533 | 25 | 133 | 6.4 | 17.7 | 0.00 | 0.00 | 0.00 | 60 | 1024.7 |
| 20260510021741 | 25 | 102 | 6.4 | 17.7 | 0.00 | 0.00 | 0.00 | 63 | 1024.7 |
| 20260510021239 | 25 | 204 | 8.0 | 22.5 | 0.00 | 0.00 | 0.00 | 62 | 1024.7 |
| 20260510020752 | 25 | 106 | 8.0 | 22.5 | 0.00 | 0.00 | 0.00 | 62 | 1024.8 |
| 20260510020237 | 25 | 175 | 8.0 | 19.3 | 0.00 | 0.00 | 0.00 | 63 | 1024.9 |
| 20260510015744 | 25 | 110 | 8.0 | 20.9 | 0.00 | 0.00 | 0.00 | 62 | 1025.0 |
| 20260510015456 | 24 | 118 | 6.4 | 20.9 | 0.00 | 0.00 | 0.00 | 62 | 1025.2 |
| 20260510015227 | 24 | 142 | 6.4 | 16.1 | 0.00 | 0.00 | 0.00 | 63 | 1025.3 |
| 20260510014240 | 23 | 163 | 6.4 | 14.5 | 0.00 | 0.00 | 0.00 | 65 | 1025.4 |
| 20260510013750 | 23 | 141 | 6.4 | 16.1 | 0.00 | 0.00 | 0.00 | 66 | 1025.6 |
| 20260510013233 | 23 | 118 | 6.4 | 16.1 | 0.00 | 0.00 | 0.00 | 65 | 1025.7 |
| 20260510012741 | 23 | 109 | 4.8 | 12.9 | 0.00 | 0.00 | 0.00 | 66 | 1025.7 |
| 20260510012218 | 23 | 145 | 6.4 | 14.5 | 0.00 | 0.00 | 0.00 | 65 | 1025.7 |
| 20260510011730 | 23 | 133 | 4.8 | 14.5 | 0.00 | 0.00 | 0.00 | 65 | 1025.7 |
| 20260510011201 | 23 | 137 | 4.8 | 9.7 | 0.00 | 0.00 | 0.00 | 66 | 1025.8 |
| 20260510010923 | 23 | 132 | 6.4 | 16.1 | 0.00 | 0.00 | 0.00 | 65 | 1025.9 |
| 20260510010149 | 23 | 180 | 6.4 | 16.1 | 0.00 | 0.00 | 0.00 | 66 | 1026.0 |
| 20260510005652 | 23 | 192 | 4.8 | 14.5 | 0.00 | 0.00 | 0.00 | 66 | 1026.1 |
| 20260510005151 | 23 | 202 | 4.8 | 14.5 | 0.00 | 0.00 | 0.00 | 66 | 1026.1 |
| 20260510004857 | 23 | 163 | 6.4 | 14.5 | 0.00 | 0.00 | 0.00 | 66 | 1026.1 |
| 20260510004058 | 23 | 249 | 4.8 | 14.5 | 0.00 | 0.00 | 0.00 | 65 | 1026.1 |
| 20260510003556 | 23 | 207 | 4.8 | 11.3 | 0.00 | 0.00 | 0.00 | 66 | 1026.4 |
| 20260510003051 | 23 | 166 | 4.8 | 11.3 | 0.00 | 0.00 | 0.00 | 66 | 1026.4 |
| 20260510002555 | 23 | 215 | 4.8 | 11.3 | 0.00 | 0.00 | 0.00 | 66 | 1026.5 |
| 20260510002050 | 23 | 116 | 4.8 | 11.3 | 0.00 | 0.00 | 0.00 | 66 | 1026.4 |
| 20260510001558 | 23 | 180 | 6.4 | 14.5 | 0.00 | 0.00 | 0.00 | 67 | 1026.5 |
| 20260510001050 | 23 | 241 | 4.8 | 14.5 | 0.00 | 0.00 | 0.00 | 67 | 1026.5 |
| 20260510000550 | 23 | 226 | 3.2 | 9.7 | 0.00 | 0.00 | 0.00 | 68 | 1026.5 |
| 20260510000105 | 22 | 190 | 3.2 | 9.7 | 0.00 | 0.00 | 0.00 | 68 | 1026.5 |
| 20260509235546 | 22 | 205 | 3.2 | 8.0 | 0.00 | 0.00 | 0.00 | 69 | 1026.5 |
| 20260509235044 | 22 | 175 | 3.2 | 8.0 | 0.00 | 0.00 | 0.00 | 69 | 1026.4 |
| 20260509234808 | 22 | 250 | 3.2 | 8.0 | 0.00 | 0.00 | 0.00 | 70 | 1026.4 |
| 20260509234043 | 21 | 225 | 1.6 | 6.4 | 0.00 | 0.00 | 0.00 | 70 | 1026.4 |
| 20260509233553 | 21 | 226 | 3.2 | 6.4 | 0.00 | 0.00 | 0.00 | 72 | 1026.5 |
| 20260509233030 | 21 | 226 | 3.2 | 8.0 | 0.00 | 0.00 | 0.00 | 73 | 1026.5 |
| 20260509232526 | 20 | 246 | 3.2 | 8.0 | 0.00 | 0.00 | 0.00 | 73 | 1026.5 |
| 20260509232027 | 20 | 166 | 4.8 | 9.7 | 0.00 | 0.00 | 0.00 | 75 | 1026.4 |
| 20260509231513 | 19 | 195 | 3.2 | 9.7 | 0.00 | 0.00 | 0.00 | 75 | 1026.3 |
| 20260509231019 | 19 | 239 | 3.2 | 9.7 | 0.00 | 0.00 | 0.00 | 76 | 1026.2 |
| 20260509230748 | 18 | 219 | 4.8 | 9.7 | 0.00 | 0.00 | 0.00 | 76 | 1026.1 |
| 20260509230010 | 18 | 175 | 4.8 | 8.0 | 0.00 | 0.00 | 0.00 | 77 | 1026.2 |
| 20260509225515 | 18 | 195 | 3.2 | 8.0 | 0.00 | 0.00 | 0.00 | 78 | 1026.1 |
| 20260509225022 | 17 | 218 | 3.2 | 9.7 | 0.00 | 0.00 | 0.00 | 78 | 1026.2 |
| 20260509224501 | 17 | 219 | 3.2 | 9.7 | 0.00 | 0.00 | 0.00 | 80 | 1026.2 |
| 20260509224005 | 17 | 199 | 1.6 | 6.4 | 0.00 | 0.00 | 0.00 | 80 | 1026.0 |
| 20260509223451 | 16 | 206 | 1.6 | 8.0 | 0.00 | 0.00 | 0.00 | 81 | 1026.0 |
| 20260509222957 | 16 | 206 | 3.2 | 8.0 | 0.00 | 0.00 | 0.00 | 81 | 1026.0 |
| 20260509222451 | 16 | 229 | 3.2 | 8.0 | 0.00 | 0.00 | 0.00 | 81 | 1025.9 |
| 20260509221953 | 16 | 234 | 3.2 | 8.0 | 0.00 | 0.00 | 0.00 | 82 | 1025.8 |
| 20260509221451 | 15 | 221 | 3.2 | 8.0 | 0.00 | 0.00 | 0.00 | 83 | 1025.7 |
| 20260509220957 | 15 | 222 | 3.2 | 8.0 | 0.00 | 0.00 | 0.00 | 84 | 1025.7 |
| 20260509220456 | 15 | 251 | 3.2 | 8.0 | 0.00 | 0.00 | 0.00 | 84 | 1025.7 |
| 20260509215949 | 14 | 212 | 1.6 | 8.0 | 0.00 | 0.00 | 0.00 | 85 | 1025.7 |
| 20260509215711 | 14 | 185 | 3.2 | 8.0 | 0.00 | 0.00 | 0.00 | 85 | 1025.8 |
| 20260509214952 | 13 | 189 | 3.2 | 8.0 | 0.00 | 0.00 | 0.00 | 85 | 1025.7 |
| 20260509214450 | 13 | 224 | 3.2 | 8.0 | 0.00 | 0.00 | 0.00 | 85 | 1025.8 |
| 20260509213945 | 13 | 249 | 1.6 | 6.4 | 0.00 | 0.00 | 0.00 | 85 | 1025.8 |
| 20260509213501 | 13 | 217 | 1.6 | 6.4 | 0.00 | 0.00 | 0.00 | 85 | 1025.7 |
| 20260509212938 | 13 | 219 | 3.2 | 8.0 | 0.00 | 0.00 | 0.00 | 85 | 1025.6 |
| 20260509212433 | 13 | 248 | 3.2 | 8.0 | 0.00 | 0.00 | 0.00 | 85 | 1025.5 |
| 20260509211934 | 12 | 224 | 1.6 | 4.8 | 0.00 | 0.00 | 0.00 | 85 | 1025.4 |
| 20260509211433 | 12 | 224 | 1.6 | 6.4 | 0.00 | 0.00 | 0.00 | 85 | 1025.3 |
| 20260509211124 | 12 | 218 | 1.6 | 6.4 | 0.00 | 0.00 | 0.00 | 85 | 1025.2 |
| 20260509210408 | 12 | 244 | 1.6 | 6.4 | 0.00 | 0.00 | 0.00 | 85 | 1025.1 |
| 20260509205850 | 12 | 244 | 1.6 | 6.4 | 0.00 | 0.00 | 0.00 | 85 | 1024.9 |
| 20260509205343 | 12 | 246 | 1.6 | 6.4 | 0.00 | 0.00 | 0.00 | 85 | 1024.8 |
| 20260509204911 | 12 | 195 | 0.0 | 4.8 | 0.00 | 0.00 | 0.00 | 84 | 1024.8 |
| 20260509204601 | 12 | 195 | 0.0 | 4.8 | 0.00 | 0.00 | 0.00 | 84 | 1024.8 |
| 20260509203826 | 12 | 195 | 1.6 | 4.8 | 0.00 | 0.00 | 0.00 | 84 | 1024.7 |
| 20260509203307 | 12 | 195 | 1.6 | 4.8 | 0.00 | 0.00 | 0.00 | 84 | 1024.6 |
| 20260509202812 | 12 | 195 | 1.6 | 4.8 | 0.00 | 0.00 | 0.00 | 84 | 1024.6 |
| 20260509202307 | 12 | 195 | 1.6 | 3.2 | 0.00 | 0.00 | 0.00 | 84 | 1024.6 |
| 20260509202036 | 12 | 195 | 1.6 | 4.8 | 0.00 | 0.00 | 0.00 | 84 | 1024.5 |
| 20260509201305 | 12 | 195 | 1.6 | 8.0 | 0.00 | 0.00 | 0.00 | 84 | 1024.5 |
| 20260509201035 | 12 | 195 | 1.6 | 8.0 | 0.00 | 0.00 | 0.00 | 84 | 1024.4 |
| 20260509200316 | 12 | 195 | 3.2 | 8.0 | 0.00 | 0.00 | 0.00 | 84 | 1024.5 |
| 20260509195818 | 12 | 191 | 3.2 | 8.0 | 0.00 | 0.00 | 0.00 | 84 | 1024.5 |
| 20260509195246 | 12 | 185 | 3.2 | 6.4 | 0.00 | 0.00 | 0.00 | 84 | 1024.4 |
| 20260509195231 | 12 | 216 | 3.2 | 6.4 | 0.00 | 0.00 | 0.00 | 84 | 1024.3 |
| 20260509194223 | 12 | 198 | 1.6 | 6.4 | 0.00 | 0.00 | 0.00 | 84 | 1024.3 |
| 20260509193655 | 12 | 198 | 1.6 | 6.4 | 0.00 | 0.00 | 0.00 | 84 | 1024.3 |
| 20260509193214 | 12 | 198 | 1.6 | 6.4 | 0.00 | 0.00 | 0.00 | 84 | 1024.3 |
| 20260509192643 | 12 | 198 | 1.6 | 4.8 | 0.00 | 0.00 | 0.00 | 84 | 1024.2 |
| 20260509192137 | 12 | 198 | 1.6 | 4.8 | 0.00 | 0.00 | 0.00 | 84 | 1024.1 |
| 20260509191605 | 12 | 198 | 1.6 | 4.8 | 0.00 | 0.00 | 0.00 | 84 | 1024.1 |
| 20260509191111 | 12 | 199 | 1.6 | 6.4 | 0.00 | 0.00 | 0.00 | 84 | 1024.0 |
| 20260509190600 | 12 | 197 | 1.6 | 6.4 | 0.00 | 0.00 | 0.00 | 84 | 1024.0 |
| 20260509190323 | 12 | 166 | 3.2 | 6.4 | 0.00 | 0.00 | 0.00 | 84 | 1024.0 |
| 20260509185555 | 12 | 189 | 3.2 | 6.4 | 0.00 | 0.00 | 0.00 | 85 | 1024.0 |
| 20260509185053 | 12 | 189 | 1.6 | 6.4 | 0.00 | 0.00 | 0.00 | 85 | 1023.9 |
| 20260509184551 | 12 | 222 | 1.6 | 3.2 | 0.00 | 0.00 | 0.00 | 85 | 1023.9 |
| 20260509184039 | 12 | 223 | 1.6 | 3.2 | 0.00 | 0.00 | 0.00 | 85 | 1024.0 |
| 20260509183553 | 12 | 222 | 1.6 | 3.2 | 0.00 | 0.00 | 0.00 | 85 | 1024.0 |
| 20260509183255 | 12 | 223 | 1.6 | 6.4 | 0.00 | 0.00 | 0.00 | 85 | 1023.9 |
| 20260509182454 | 12 | 222 | 1.6 | 6.4 | 0.00 | 0.00 | 0.00 | 85 | 1023.8 |
| 20260509182006 | 12 | 223 | 0.0 | 6.4 | 0.00 | 0.00 | 0.00 | 85 | 1023.8 |
| 20260509181459 | 12 | 219 | 0.0 | 3.2 | 0.00 | 0.00 | 0.00 | 85 | 1023.8 |
| 20260509180947 | 12 | 219 | 1.6 | 4.8 | 0.00 | 0.00 | 0.00 | 85 | 1023.8 |
| 20260509180442 | 12 | 219 | 1.6 | 4.8 | 0.00 | 0.00 | 0.00 | 86 | 1023.8 |
| 20260509175945 | 12 | 219 | 1.6 | 6.4 | 0.00 | 0.00 | 0.00 | 86 | 1023.7 |
| 20260509175437 | 12 | 222 | 3.2 | 6.4 | 0.00 | 0.00 | 0.00 | 86 | 1023.7 |
| 20260509174946 | 12 | 241 | 3.2 | 4.8 | 0.00 | 0.00 | 0.00 | 86 | 1023.6 |
| 20260509174439 | 12 | 206 | 3.2 | 6.4 | 0.00 | 0.00 | 0.00 | 87 | 1023.5 |
| 20260509173940 | 12 | 206 | 3.2 | 6.4 | 0.00 | 0.00 | 0.00 | 87 | 1023.6 |
| 20260509173440 | 12 | 222 | 1.6 | 6.4 | 0.00 | 0.00 | 0.00 | 87 | 1023.5 |
| 20260509172940 | 12 | 207 | 1.6 | 6.4 | 0.00 | 0.00 | 0.00 | 87 | 1023.4 |
| 20260509172429 | 12 | 185 | 1.6 | 4.8 | 0.00 | 0.00 | 0.00 | 87 | 1023.4 |
| 20260509171939 | 12 | 185 | 0.0 | 3.2 | 0.00 | 0.00 | 0.00 | 88 | 1023.5 |
| 20260509171853 | 12 | 185 | 1.6 | 4.8 | 0.00 | 0.00 | 0.00 | 88 | 1023.5 |
| 20260509171525 | 12 | 185 | 0.0 | 3.2 | 0.00 | 0.00 | 0.00 | 88 | 1023.6 |
| 20260509170411 | 12 | 185 | 0.0 | 4.8 | 0.00 | 0.00 | 0.00 | 88 | 1023.6 |
| 20260509165904 | 12 | 185 | 0.0 | 3.2 | 0.00 | 0.00 | 0.00 | 88 | 1023.7 |
| 20260509165412 | 12 | 185 | 0.0 | 3.2 | 0.00 | 0.00 | 0.00 | 88 | 1023.7 |
| 20260509164915 | 12 | 185 | 0.0 | 3.2 | 0.00 | 0.00 | 0.00 | 89 | 1023.7 |
| 20260509164411 | 12 | 185 | 0.0 | 1.6 | 0.00 | 0.00 | 0.00 | 89 | 1023.7 |
| 20260509163914 | 12 | 185 | 0.0 | 3.2 | 0.00 | 0.00 | 0.00 | 89 | 1023.7 |
| 20260509163402 | 12 | 185 | 0.0 | 3.2 | 0.00 | 0.00 | 0.00 | 89 | 1023.6 |
| 20260509162910 | 12 | 185 | 0.0 | 6.4 | 0.00 | 0.00 | 0.00 | 89 | 1023.7 |
| 20260509162354 | 12 | 185 | 0.0 | 6.4 | 0.00 | 0.00 | 0.00 | 90 | 1023.6 |
| 20260509161847 | 12 | 185 | 1.6 | 6.4 | 0.00 | 0.00 | 0.00 | 90 | 1023.6 |
| 20260509161326 | 12 | 185 | 1.6 | 6.4 | 0.00 | 0.00 | 0.00 | 90 | 1023.5 |
| 20260509160830 | 11 | 132 | 0.0 | 4.8 | 0.00 | 0.00 | 0.00 | 90 | 1023.5 |
| 20260509160312 | 11 | 130 | 0.0 | 3.2 | 0.00 | 0.00 | 0.00 | 90 | 1023.5 |
| 20260509155816 | 11 | 130 | 0.0 | 3.2 | 0.00 | 0.00 | 0.00 | 90 | 1023.6 |
| 20260509155539 | 11 | 130 | 0.0 | 3.2 | 0.00 | 0.00 | 0.00 | 90 | 1023.7 |
| 20260509154807 | 11 | 130 | 0.0 | 3.2 | 0.00 | 0.00 | 0.00 | 90 | 1023.7 |
| 20260509154308 | 11 | 130 | 1.6 | 3.2 | 0.00 | 0.00 | 0.00 | 90 | 1023.6 |
| 20260509154027 | 11 | 130 | 0.0 | 3.2 | 0.00 | 0.00 | 0.00 | 90 | 1023.6 |
| 20260509153307 | 11 | 130 | 0.0 | 3.2 | 0.00 | 0.00 | 0.00 | 90 | 1023.7 |
| 20260509153255 | 11 | 130 | 0.0 | 3.2 | 0.00 | 0.00 | 0.00 | 90 | 1023.8 |
| 20260509152259 | 11 | 130 | 0.0 | 3.2 | 0.00 | 0.00 | 0.00 | 90 | 1023.8 |
| 20260509151757 | 11 | 130 | 0.0 | 3.2 | 0.00 | 0.00 | 0.00 | 89 | 1023.7 |
| 20260509151301 | 11 | 130 | 0.0 | 3.2 | 0.00 | 0.00 | 0.00 | 89 | 1023.8 |
| 20260509150802 | 11 | 119 | 0.0 | 1.6 | 0.00 | 0.00 | 0.00 | 89 | 1023.8 |
| 20260509150258 | 11 | 119 | 0.0 | 3.2 | 0.00 | 0.00 | 0.00 | 89 | 1024.0 |
| 20260509145756 | 11 | 119 | 0.0 | 3.2 | 0.00 | 0.00 | 0.00 | 89 | 1023.9 |
| 20260509145251 | 11 | 119 | 0.0 | 1.6 | 0.00 | 0.00 | 0.00 | 89 | 1024.0 |
| 20260509145009 | 11 | 119 | 0.0 | 1.6 | 0.00 | 0.00 | 0.00 | 89 | 1024.0 |
| 20260509144511 | 11 | 119 | 0.0 | 1.6 | 0.00 | 0.00 | 0.00 | 89 | 1024.0 |
| 20260509143957 | 11 | 119 | 0.0 | 1.6 | 0.00 | 0.00 | 0.00 | 89 | 1024.0 |
| 20260509143208 | 11 | 119 | 0.0 | 1.6 | 0.00 | 0.00 | 0.00 | 88 | 1023.9 |
| 20260509142706 | 11 | 119 | 0.0 | 1.6 | 0.00 | 0.00 | 0.00 | 88 | 1024.0 |
| 20260509142206 | 11 | 119 | 0.0 | 1.6 | 0.00 | 0.00 | 0.00 | 88 | 1024.0 |
| 20260509141713 | 11 | 119 | 0.0 | 1.6 | 0.00 | 0.00 | 0.00 | 88 | 1024.1 |
| 20260509141418 | 11 | 119 | 0.0 | 1.6 | 0.00 | 0.00 | 0.00 | 88 | 1024.1 |
| 20260509140706 | 11 | 119 | 0.0 | 1.6 | 0.00 | 0.00 | 0.00 | 88 | 1024.1 |
| 20260509140204 | 11 | 119 | 0.0 | 1.6 | 0.00 | 0.00 | 0.00 | 88 | 1024.0 |
| 20260509135704 | 11 | 119 | 0.0 | 1.6 | 0.00 | 0.00 | 0.00 | 88 | 1024.1 |
| 20260509135158 | 11 | 119 | 0.0 | 1.6 | 0.00 | 0.00 | 0.00 | 88 | 1024.1 |
| 20260509134639 | 12 | 119 | 0.0 | 1.6 | 0.00 | 0.00 | 0.00 | 88 | 1024.1 |
| 20260509134145 | 12 | 119 | 0.0 | 3.2 | 0.00 | 0.00 | 0.00 | 87 | 1024.1 |
| 20260509133612 | 12 | 119 | 0.0 | 3.2 | 0.00 | 0.00 | 0.00 | 87 | 1024.1 |
| 20260509133358 | 12 | 119 | 0.0 | 1.6 | 0.00 | 0.00 | 0.00 | 87 | 1024.1 |
| 20260509132600 | 12 | 119 | 0.0 | 1.6 | 0.00 | 0.00 | 0.00 | 87 | 1024.1 |
| 20260509132058 | 12 | 119 | 0.0 | 0.0 | 0.00 | 0.00 | 0.00 | 87 | 1024.1 |
| 20260509131559 | 12 | 119 | 0.0 | 3.2 | 0.00 | 0.00 | 0.00 | 87 | 1024.1 |
| 20260509131104 | 12 | 119 | 0.0 | 3.2 | 0.00 | 0.00 | 0.00 | 87 | 1024.1 |
| 20260509130554 | 12 | 119 | 0.0 | 3.2 | 0.00 | 0.00 | 0.00 | 87 | 1024.0 |
| 20260509130321 | 12 | 119 | 0.0 | 3.2 | 0.00 | 0.00 | 0.00 | 87 | 1024.1 |
| 20260509125546 | 12 | 119 | 0.0 | 1.6 | 0.00 | 0.00 | 0.00 | 86 | 1024.1 |
| 20260509125048 | 12 | 119 | 0.0 | 1.6 | 0.00 | 0.00 | 0.00 | 86 | 1024.1 |
| 20260509124544 | 12 | 119 | 0.0 | 1.6 | 0.00 | 0.00 | 0.00 | 86 | 1024.0 |
| 20260509124036 | 12 | 119 | 0.0 | 1.6 | 0.00 | 0.00 | 0.00 | 86 | 1024.1 |
| 20260509123533 | 12 | 119 | 0.0 | 1.6 | 0.00 | 0.00 | 0.00 | 86 | 1024.0 |
| 20260509123029 | 12 | 119 | 0.0 | 1.6 | 0.00 | 0.00 | 0.00 | 86 | 1024.1 |
| 20260509122530 | 13 | 119 | 0.0 | 1.6 | 0.00 | 0.00 | 0.00 | 85 | 1024.1 |
| 20260509122254 | 13 | 119 | 0.0 | 1.6 | 0.00 | 0.00 | 0.00 | 85 | 1024.1 |
| 20260509121757 | 13 | 119 | 0.0 | 0.0 | 0.00 | 0.00 | 0.00 | 85 | 1024.1 |
| 20260509121258 | 13 | 119 | 0.0 | 0.0 | 0.00 | 0.00 | 0.00 | 85 | 1024.1 |
| 20260509120745 | 13 | 119 | 0.0 | 0.0 | 0.00 | 0.00 | 0.00 | 85 | 1024.1 |
| 20260509120040 | 13 | 119 | 0.0 | 0.0 | 0.00 | 0.00 | 0.00 | 85 | 1024.1 |
| 20260509115519 | 13 | 119 | 0.0 | 0.0 | 0.00 | 0.00 | 0.00 | 85 | 1024.1 |
| 20260509115234 | 13 | 119 | 0.0 | 1.6 | 0.00 | 0.00 | 0.00 | 85 | 1024.1 |
| 20260509114511 | 13 | 119 | 0.0 | 1.6 | 0.00 | 0.00 | 0.00 | 85 | 1024.0 |
| 20260509114010 | 13 | 119 | 0.0 | 1.6 | 0.00 | 0.00 | 0.00 | 85 | 1024.1 |
| 20260509113505 | 13 | 119 | 0.0 | 1.6 | 0.00 | 0.00 | 0.00 | 85 | 1024.1 |
| 20260509112955 | 13 | 119 | 0.0 | 0.0 | 0.00 | 0.00 | 0.00 | 84 | 1024.1 |
| 20260509112457 | 13 | 119 | 0.0 | 1.6 | 0.00 | 0.00 | 0.00 | 84 | 1024.1 |
| 20260509112437 | 13 | 119 | 0.0 | 1.6 | 0.00 | 0.00 | 0.00 | 84 | 1024.2 |
| 20260509111450 | 13 | 119 | 0.0 | 0.0 | 0.00 | 0.00 | 0.00 | 84 | 1024.2 |
| 20260509110950 | 13 | 119 | 0.0 | 1.6 | 0.00 | 0.00 | 0.00 | 84 | 1024.2 |
| 20260509110457 | 13 | 119 | 0.0 | 1.6 | 0.00 | 0.00 | 0.00 | 84 | 1024.1 |
| 20260509110000 | 13 | 119 | 0.0 | 0.0 | 0.00 | 0.00 | 0.00 | 84 | 1024.0 |
| 20260509105501 | 14 | 119 | 0.0 | 0.0 | 0.00 | 0.00 | 0.00 | 84 | 1024.1 |
| 20260509105213 | 14 | 119 | 0.0 | 1.6 | 0.00 | 0.00 | 0.00 | 83 | 1024.0 |
| 20260509104450 | 14 | 119 | 0.0 | 1.6 | 0.00 | 0.00 | 0.00 | 83 | 1024.0 |
| 20260509103941 | 14 | 119 | 0.0 | 1.6 | 0.00 | 0.00 | 0.00 | 83 | 1024.0 |
| 20260509103443 | 14 | 119 | 0.0 | 1.6 | 0.00 | 0.00 | 0.00 | 82 | 1024.0 |
| 20260509102949 | 14 | 119 | 0.0 | 1.6 | 0.00 | 0.00 | 0.00 | 82 | 1024.0 |
| 20260509102437 | 14 | 119 | 0.0 | 0.0 | 0.00 | 0.00 | 0.00 | 81 | 1024.0 |
| 20260509101934 | 15 | 119 | 0.0 | 0.0 | 0.00 | 0.00 | 0.00 | 81 | 1024.0 |
| 20260509101421 | 15 | 119 | 0.0 | 1.6 | 0.00 | 0.00 | 0.00 | 81 | 1024.0 |
| 20260509101143 | 15 | 119 | 0.0 | 1.6 | 0.00 | 0.00 | 0.00 | 81 | 1023.9 |
| 20260509100425 | 15 | 119 | 0.0 | 1.6 | 0.00 | 0.00 | 0.00 | 80 | 1023.9 |
| 20260509095924 | 15 | 119 | 0.0 | 1.6 | 0.00 | 0.00 | 0.00 | 80 | 1023.9 |
| 20260509095430 | 15 | 119 | 0.0 | 1.6 | 0.00 | 0.00 | 0.00 | 80 | 1023.8 |
| 20260509094909 | 15 | 119 | 0.0 | 1.6 | 0.00 | 0.00 | 0.00 | 80 | 1023.8 |
| 20260509094408 | 15 | 119 | 0.0 | 1.6 | 0.00 | 0.00 | 0.00 | 79 | 1023.6 |
| 20260509093907 | 15 | 119 | 1.6 | 1.6 | 0.00 | 0.00 | 0.00 | 79 | 1023.6 |
| 20260509093410 | 16 | 119 | 1.6 | 1.6 | 0.00 | 0.00 | 0.00 | 78 | 1023.6 |
| 20260509092838 | 16 | 119 | 0.0 | 1.6 | 0.00 | 0.00 | 0.00 | 77 | 1023.5 |
| 20260509092358 | 16 | 119 | 0.0 | 1.6 | 0.00 | 0.00 | 0.00 | 76 | 1023.5 |
| 20260509091833 | 16 | 119 | 0.0 | 1.6 | 0.00 | 0.00 | 0.00 | 75 | 1023.5 |
| 20260509091545 | 16 | 119 | 0.0 | 1.6 | 0.00 | 0.00 | 0.00 | 75 | 1023.5 |
| 20260509091052 | 16 | 119 | 0.0 | 1.6 | 0.00 | 0.00 | 0.00 | 75 | 1023.4 |
| 20260509090322 | 16 | 119 | 1.6 | 1.6 | 0.00 | 0.00 | 0.00 | 74 | 1023.3 |
| 20260509090300 | 17 | 119 | 0.0 | 1.6 | 0.00 | 0.00 | 0.00 | 74 | 1023.3 |
| 20260509085318 | 17 | 119 | 0.0 | 1.6 | 0.00 | 0.00 | 0.00 | 73 | 1023.2 |
| 20260509084824 | 17 | 119 | 0.0 | 1.6 | 0.00 | 0.00 | 0.00 | 73 | 1023.2 |
| 20260509084311 | 17 | 119 | 0.0 | 1.6 | 0.00 | 0.00 | 0.00 | 72 | 1023.1 |
| 20260509083803 | 17 | 119 | 0.0 | 1.6 | 0.00 | 0.00 | 0.00 | 72 | 1023.1 |
| 20260509083311 | 17 | 119 | 0.0 | 1.6 | 0.00 | 0.00 | 0.00 | 71 | 1023.0 |
| 20260509082756 | 18 | 119 | 0.0 | 1.6 | 0.00 | 0.00 | 0.00 | 70 | 1023.0 |
| 20260509082257 | 18 | 119 | 0.0 | 1.6 | 0.00 | 0.00 | 0.00 | 69 | 1022.9 |
| 20260509081755 | 18 | 119 | 0.0 | 1.6 | 0.00 | 0.00 | 0.00 | 68 | 1022.9 |
| 20260509081318 | 18 | 119 | 0.0 | 1.6 | 0.00 | 0.00 | 0.00 | 68 | 1022.8 |
| 20260509080748 | 18 | 119 | 0.0 | 0.0 | 0.00 | 0.00 | 0.00 | 67 | 1022.7 |
| 20260509080302 | 19 | 119 | 0.0 | 0.0 | 0.00 | 0.00 | 0.00 | 67 | 1022.7 |
| 20260509075741 | 19 | 119 | 0.0 | 0.0 | 0.00 | 0.00 | 0.00 | 66 | 1022.7 |
| 20260509075214 | 19 | 119 | 0.0 | 0.0 | 0.00 | 0.00 | 0.00 | 64 | 1022.6 |
| 20260509074648 | 20 | 119 | 0.0 | 0.0 | 0.00 | 0.00 | 0.00 | 63 | 1022.5 |
| 20260509074148 | 20 | 119 | 0.0 | 0.0 | 0.00 | 0.00 | 0.00 | 63 | 1022.4 |
| 20260509073649 | 20 | 119 | 0.0 | 0.0 | 0.00 | 0.00 | 0.00 | 62 | 1022.4 |
| 20260509073418 | 20 | 119 | 0.0 | 0.0 | 0.00 | 0.00 | 0.00 | 62 | 1022.4 |
| 20260509072703 | 20 | 119 | 0.0 | 1.6 | 0.00 | 0.00 | 0.00 | 61 | 1022.3 |
| 20260509072121 | 20 | 119 | 0.0 | 1.6 | 0.00 | 0.00 | 0.00 | 60 | 1022.3 |
| 20260509071556 | 21 | 119 | 0.0 | 1.6 | 0.00 | 0.00 | 0.00 | 60 | 1022.2 |
| 20260509071103 | 21 | 119 | 0.0 | 1.6 | 0.00 | 0.00 | 0.00 | 60 | 1022.2 |
| 20260509070534 | 21 | 119 | 0.0 | 3.2 | 0.00 | 0.00 | 0.00 | 60 | 1022.2 |
| 20260509070323 | 21 | 119 | 0.0 | 3.2 | 0.00 | 0.00 | 0.00 | 59 | 1022.1 |
| 20260509065513 | 21 | 119 | 1.6 | 6.4 | 0.00 | 0.00 | 0.00 | 59 | 1022.0 |
| 20260509065444 | 21 | 119 | 1.6 | 6.4 | 0.00 | 0.00 | 0.00 | 58 | 1021.9 |
| 20260509064509 | 21 | 119 | 1.6 | 6.4 | 0.00 | 0.00 | 0.00 | 57 | 1021.8 |
| 20260509064215 | 22 | 119 | 3.2 | 8.0 | 0.00 | 0.00 | 0.00 | 55 | 1021.8 |
| 20260509063452 | 22 | 114 | 4.8 | 8.0 | 0.00 | 0.00 | 0.00 | 54 | 1021.8 |
| 20260509062948 | 22 | 114 | 4.8 | 8.0 | 0.00 | 0.00 | 0.00 | 52 | 1021.7 |
| 20260509062438 | 22 | 124 | 3.2 | 11.3 | 0.00 | 0.00 | 0.00 | 50 | 1021.6 |
| 20260509061936 | 22 | 126 | 3.2 | 11.3 | 0.00 | 0.00 | 0.00 | 50 | 1021.6 |
| 20260509061436 | 22 | 96 | 3.2 | 11.3 | 0.00 | 0.00 | 0.00 | 50 | 1021.6 |
| 20260509060936 | 23 | 108 | 4.8 | 14.5 | 0.00 | 0.00 | 0.00 | 50 | 1021.6 |
| 20260509060435 | 23 | 122 | 6.4 | 14.5 | 0.00 | 0.00 | 0.00 | 49 | 1021.5 |
| 20260509055946 | 23 | 126 | 6.4 | 14.5 | 0.00 | 0.00 | 0.00 | 48 | 1021.6 |
| 20260509055427 | 23 | 116 | 6.4 | 14.5 | 0.00 | 0.00 | 0.00 | 47 | 1021.4 |
| 20260509055132 | 23 | 120 | 6.4 | 14.5 | 0.00 | 0.00 | 0.00 | 47 | 1021.4 |
| 20260509054420 | 23 | 123 | 6.4 | 12.9 | 0.00 | 0.00 | 0.00 | 46 | 1021.4 |
| 20260509053851 | 23 | 150 | 6.4 | 12.9 | 0.00 | 0.00 | 0.00 | 45 | 1021.4 |
| 20260509053359 | 23 | 123 | 4.8 | 12.9 | 0.00 | 0.00 | 0.00 | 45 | 1021.4 |
| 20260509052830 | 23 | 117 | 3.2 | 12.9 | 0.00 | 0.00 | 0.00 | 47 | 1021.3 |
| 20260509052319 | 23 | 114 | 4.8 | 12.9 | 0.00 | 0.00 | 0.00 | 47 | 1021.3 |